• In Romania
  • List of Countries
  • For 7 days
  • Water Temperature
  • Satellite Maps
  • Weather Map
  • Weather Widgets
  • user-avatar
    Login

    Hourly Weather Cam Ranh

    Today, 15 August, Wednesday

    Time Temperature Precipitation Wind Pressure Humidity
    00:00 +28°C° 0.3 mm 5 mps 750 mmHg 80%
    01:00 +27°C° 0 mm 5 mps 750 mmHg 83%
    02:00 +27°C° 0.3 mm 6 mps 750 mmHg 83%
    03:00 +27°C° 0.3 mm 6 mps 750 mmHg 83%
    04:00 +27°C° 0.3 mm 6 mps 750 mmHg 83%
    05:00 +27°C° 0.1 mm 6 mps 750 mmHg 82%
    06:00 +28°C° 0.1 mm 6 mps 750 mmHg 80%
    07:00 +28°C° 0 mm 7 mps 751 mmHg 79%
    08:00 +30°C° 0 mm 6 mps 751 mmHg 71%
    09:00 +33°C° 0 mm 6 mps 751 mmHg 63%
    10:00 +35°C° 0 mm 6 mps 751 mmHg 55%
    11:00 +36°C° 0 mm 6 mps 750 mmHg 52%
    12:00 +38°C° 0 mm 7 mps 750 mmHg 49%
    13:00 +39°C° 0 mm 7 mps 750 mmHg 46%
    14:00 +38°C° 0 mm 7 mps 749 mmHg 47%
    15:00 +38°C° 0 mm 7 mps 749 mmHg 47%
    16:00 +38°C° 0 mm 7 mps 748 mmHg 48%
    17:00 +35°C° 0 mm 7 mps 749 mmHg 54%
    18:00 +33°C° 0 mm 6 mps 749 mmHg 61%
    19:00 +30°C° 0 mm 6 mps 749 mmHg 69%
    20:00 +30°C° 0.1 mm 6 mps 749 mmHg 72%
    21:00 +29°C° 0.1 mm 5 mps 750 mmHg 74%
    22:00 +29°C° 0.1 mm 5 mps 750 mmHg 77%
    23:00 +29°C° 0.2 mm 6 mps 750 mmHg 79%

    Tomorrow, 16 August, Thursday

    Time Temperature Precipitation Wind Pressure Humidity
    00:00 +28°C° 0.2 mm 6 mps 750 mmHg 80%
    01:00 +28°C° 0.2 mm 6 mps 750 mmHg 81%
    02:00 +28°C° 0.3 mm 6 mps 749 mmHg 81%
    03:00 +28°C° 0.3 mm 6 mps 749 mmHg 81%
    04:00 +28°C° 0.3 mm 6 mps 749 mmHg 80%
    05:00 +28°C° 0 mm 6 mps 749 mmHg 78%
    06:00 +29°C° 0 mm 6 mps 749 mmHg 76%
    07:00 +29°C° 0 mm 6 mps 749 mmHg 74%
    08:00 +32°C° 0 mm 6 mps 749 mmHg 66%
    09:00 +34°C° 0 mm 6 mps 749 mmHg 58%
    10:00 +36°C° 0 mm 5 mps 749 mmHg 50%
    11:00 +38°C° 0 mm 6 mps 749 mmHg 47%
    12:00 +39°C° 0 mm 6 mps 748 mmHg 44%
    13:00 +40°C° 0 mm 7 mps 748 mmHg 41%
    14:00 +39°C° 0 mm 7 mps 747 mmHg 43%
    15:00 +39°C° 0 mm 6 mps 747 mmHg 45%
    16:00 +38°C° 0 mm 6 mps 746 mmHg 46%
    17:00 +35°C° 0 mm 6 mps 747 mmHg 52%
    18:00 +33°C° 0 mm 5 mps 747 mmHg 58%
    19:00 +30°C° 0 mm 5 mps 747 mmHg 64%
    20:00 +30°C° 0 mm 5 mps 748 mmHg 67%
    21:00 +29°C° 0 mm 5 mps 748 mmHg 69%
    22:00 +28°C° 0 mm 5 mps 749 mmHg 72%
    23:00 +28°C° 0 mm 5 mps 749 mmHg 73%

    Day after tomorrow, 17 August, Friday

    Time Temperature Precipitation Wind Pressure Humidity
    00:00 +28°C° 0 mm 5 mps 748 mmHg 74%
    01:00 +28°C° 0 mm 5 mps 748 mmHg 75%
    02:00 +28°C° 0 mm 5 mps 748 mmHg 75%
    03:00 +28°C° 0 mm 5 mps 747 mmHg 76%
    04:00 +28°C° 0 mm 5 mps 747 mmHg 76%
    05:00 +28°C° 0 mm 5 mps 747 mmHg 74%
    06:00 +29°C° 0 mm 5 mps 747 mmHg 71%
    07:00 +30°C° 0 mm 5 mps 747 mmHg 68%
    08:00 +33°C° 0 mm 5 mps 748 mmHg 60%
    09:00 +36°C° 0 mm 4 mps 748 mmHg 53%
    10:00 +38°C° 0 mm 4 mps 748 mmHg 45%
    11:00 +39°C° 0 mm 5 mps 748 mmHg 47%
    12:00 +39°C° 0 mm 6 mps 747 mmHg 48%
    13:00 +38°C° 0 mm 7 mps 746 mmHg 49%
    14:00 +38°C° 0 mm 7 mps 746 mmHg 50%
    15:00 +38°C° 0 mm 7 mps 746 mmHg 50%
    16:00 +38°C° 0 mm 7 mps 745 mmHg 51%
    17:00 +35°C° 0 mm 7 mps 746 mmHg 57%
    18:00 +33°C° 0 mm 7 mps 746 mmHg 63%
    19:00 +30°C° 0 mm 7 mps 747 mmHg 70%
    20:00 +30°C° 0 mm 6 mps 747 mmHg 72%
    21:00 +29°C° 0 mm 6 mps 748 mmHg 75%
    22:00 +29°C° 0 mm 6 mps 749 mmHg 77%
    23:00 +28°C° 0 mm 6 mps 748 mmHg 78%

    18 August, Saturday

    Time Temperature Precipitation Wind Pressure Humidity
    00:00 +28°C° 0 mm 6 mps 748 mmHg 79%
    01:00 +28°C° 0 mm 6 mps 748 mmHg 80%
    02:00 +28°C° 0 mm 6 mps 748 mmHg 80%
    03:00 +28°C° 0 mm 6 mps 747 mmHg 79%
    04:00 +28°C° 0 mm 6 mps 747 mmHg 79%
    05:00 +29°C° 0 mm 6 mps 748 mmHg 76%
    06:00 +29°C° 0 mm 6 mps 748 mmHg 73%
    07:00 +30°C° 0 mm 6 mps 748 mmHg 69%
    08:00 +33°C° 0 mm 7 mps 748 mmHg 62%
    09:00 +35°C° 0 mm 7 mps 749 mmHg 55%
    10:00 +38°C° 0 mm 7 mps 749 mmHg 48%
    11:00 +38°C° 0 mm 8 mps 748 mmHg 48%
    12:00 +39°C° 0 mm 8 mps 748 mmHg 47%
    13:00 +39°C° 0 mm 9 mps 747 mmHg 46%
    14:00 +39°C° 0 mm 9 mps 747 mmHg 48%
    15:00 +38°C° 0 mm 9 mps 746 mmHg 50%
    16:00 +38°C° 0 mm 9 mps 746 mmHg 52%
    17:00 +35°C° 0 mm 9 mps 747 mmHg 58%
    18:00 +33°C° 0 mm 8 mps 747 mmHg 65%
    19:00 +31°C° 0 mm 8 mps 748 mmHg 72%
    20:00 +30°C° 0 mm 7 mps 749 mmHg 74%
    21:00 +29°C° 0 mm 7 mps 749 mmHg 76%
    22:00 +29°C° 0 mm 6 mps 750 mmHg 78%
    23:00 +29°C° 0 mm 6 mps 750 mmHg 78%

    19 August, Sunday

    Time Temperature Precipitation Wind Pressure Humidity
    00:00 +29°C° 0 mm 6 mps 750 mmHg 78%
    01:00 +29°C° 0 mm 6 mps 749 mmHg 78%
    02:00 +28°C° 0 mm 6 mps 749 mmHg 79%
    03:00 +28°C° 0 mm 6 mps 749 mmHg 79%
    04:00 +28°C° 0 mm 6 mps 749 mmHg 79%
    05:00 +29°C° 0 mm 6 mps 750 mmHg 76%
    06:00 +29°C° 0 mm 6 mps 750 mmHg 74%
    07:00 +30°C° 0 mm 6 mps 751 mmHg 71%
    08:00 +33°C° 0 mm 6 mps 751 mmHg 63%
    09:00 +35°C° 0 mm 6 mps 751 mmHg 56%
    10:00 +38°C° 0 mm 7 mps 751 mmHg 49%
    11:00 +39°C° 0 mm 7 mps 751 mmHg 47%
    12:00 +39°C° 0 mm 8 mps 750 mmHg 46%
    13:00 +40°C° 0 mm 8 mps 749 mmHg 45%
    14:00 +39°C° 0 mm 8 mps 749 mmHg 48%
    15:00 +38°C° 0 mm 8 mps 749 mmHg 51%
    16:00 +37°C° 0 mm 9 mps 748 mmHg 55%
    17:00 +34°C° 0.3 mm 8 mps 749 mmHg 64%
    18:00 +32°C° 0.3 mm 8 mps 750 mmHg 73%
    19:00 +30°C° 0.3 mm 7 mps 750 mmHg 82%
    20:00 +29°C° 0.7 mm 7 mps 751 mmHg 83%
    21:00 +29°C° 0.7 mm 7 mps 751 mmHg 85%
    22:00 +28°C° 0.7 mm 6 mps 752 mmHg 86%
    23:00 +28°C° 0 mm 6 mps 752 mmHg 86%

    20 August, Monday

    Time Temperature Precipitation Wind Pressure Humidity
    00:00 +28°C° 0 mm 6 mps 751 mmHg 86%
    01:00 +28°C° 0 mm 6 mps 751 mmHg 85%
    02:00 +28°C° 0 mm 6 mps 751 mmHg 84%
    03:00 +28°C° 0 mm 5 mps 751 mmHg 84%
    04:00 +28°C° 0 mm 5 mps 751 mmHg 83%
    05:00 +28°C° 0 mm 5 mps 751 mmHg 78%
    06:00 +29°C° 0 mm 5 mps 751 mmHg 74%
    07:00 +30°C° 0 mm 4 mps 752 mmHg 70%
    08:00 +34°C° 0 mm 4 mps 752 mmHg 61%
    09:00 +36°C° 0 mm 5 mps 752 mmHg 52%
    10:00 +40°C° 0 mm 5 mps 752 mmHg 44%
    11:00 +40°C° 0 mm 5 mps 751 mmHg 44%
    12:00 +40°C° 0 mm 6 mps 750 mmHg 44%
    13:00 +40°C° 0 mm 7 mps 750 mmHg 44%
    14:00 +39°C° 0.1 mm 7 mps 749 mmHg 48%
    15:00 +38°C° 0.1 mm 7 mps 749 mmHg 51%
    16:00 +36°C° 0.1 mm 7 mps 749 mmHg 54%
    17:00 +35°C° 0.1 mm 7 mps 749 mmHg 62%
    18:00 +33°C° 0.1 mm 7 mps 750 mmHg 70%
    19:00 +30°C° 0.1 mm 6 mps 750 mmHg 77%
    20:00 +30°C° 0.4 mm 6 mps 751 mmHg 80%
    21:00 +29°C° 0.4 mm 6 mps 751 mmHg 82%
    22:00 +28°C° 0.4 mm 5 mps 752 mmHg 84%
    23:00 +28°C° 0.2 mm 5 mps 751 mmHg 84%
    Show more